contact:dominique.lefevre@mio.osupytheas.fr, maurice.libes@osupytheas.fr, didier.mallarino@osupytheas.fr
Project:EMSO http://www.emso-fr.org/EMSO-France
Depth: 2436.0 m
Title:EMSO Ligure Ouest : Data MII capteur MICROCAT
DateTime_Computer,Latitude,Longitude,Temperature,Conductivity,Pressure,DateTime_Instrument
DateTime_Computer,Latitude,Longitude,degC,S m-1,dbar,DateTime_Instrument
2022-01-09T00:00:30Z,42.805,6.029,13.3040,4.60058,2469.797,2022-1-09T02:02:01Z
2022-01-09T00:03:33Z,42.805,6.029,13.3043,4.60062,2469.783,2022-1-09T02:05:04Z
2022-01-09T00:06:36Z,42.805,6.029,13.3039,4.60088,2469.821,2022-1-09T02:08:07Z
2022-01-09T00:09:40Z,42.805,6.029,13.3017,4.60099,2469.773,2022-1-09T02:11:10Z
2022-01-09T00:12:43Z,42.805,6.029,13.3032,4.60085,2469.797,2022-1-09T02:14:13Z
2022-01-09T00:15:46Z,42.805,6.029,13.3014,4.60146,2469.783,2022-1-09T02:17:16Z
2022-01-09T00:18:49Z,42.805,6.029,13.3019,4.60198,2469.75,2022-1-09T02:20:19Z
2022-01-09T00:21:52Z,42.805,6.029,13.3020,4.60147,2469.76,2022-1-09T02:23:23Z
2022-01-09T00:24:55Z,42.805,6.029,13.3024,4.60140,2469.773,2022-1-09T02:26:26Z
2022-01-09T00:27:58Z,42.805,6.029,13.3010,4.60122,2469.773,2022-1-09T02:29:29Z
2022-01-09T00:31:01Z,42.805,6.029,13.3019,4.60069,2469.773,2022-1-09T02:32:32Z
2022-01-09T00:34:05Z,42.805,6.029,13.3025,4.60120,2469.727,2022-1-09T02:35:35Z
2022-01-09T00:37:08Z,42.805,6.029,13.3032,4.60109,2469.783,2022-1-09T02:38:38Z
2022-01-09T00:40:11Z,42.805,6.029,13.3044,4.60114,2469.737,2022-1-09T02:41:41Z
2022-01-09T00:43:14Z,42.805,6.029,13.3054,4.60086,2469.75,2022-1-09T02:44:44Z
2022-01-09T00:46:17Z,42.805,6.029,13.3037,4.60112,2469.773,2022-1-09T02:47:47Z
2022-01-09T00:49:20Z,42.805,6.029,13.3056,4.60062,2469.737,2022-1-09T02:50:51Z
2022-01-09T00:52:23Z,42.805,6.029,13.3050,4.60084,2469.737,2022-1-09T02:53:54Z
2022-01-09T00:55:26Z,42.805,6.029,13.3046,4.60069,2469.713,2022-1-09T02:56:57Z
2022-01-09T00:58:29Z,42.805,6.029,13.3054,4.60083,2469.727,2022-1-09T03:00:00Z
2022-01-09T01:01:33Z,42.805,6.029,13.3014,4.60081,2469.667,2022-1-09T03:03:03Z
2022-01-09T01:04:36Z,42.805,6.029,13.3033,4.60048,2469.727,2022-1-09T03:06:06Z
2022-01-09T01:07:39Z,42.805,6.029,13.3015,4.60084,2469.737,2022-1-09T03:09:09Z
2022-01-09T01:10:42Z,42.805,6.029,13.3031,4.60072,2469.727,2022-1-09T03:12:12Z
2022-01-09T01:13:45Z,42.805,6.029,13.3024,4.60077,2469.727,2022-1-09T03:15:15Z
2022-01-09T01:16:48Z,42.805,6.029,13.3041,4.60103,2469.727,2022-1-09T03:18:19Z
2022-01-09T01:19:51Z,42.805,6.029,13.3023,4.60107,2469.727,2022-1-09T03:21:22Z
2022-01-09T01:22:54Z,42.805,6.029,13.3039,4.60108,2469.713,2022-1-09T03:24:25Z
2022-01-09T01:25:58Z,42.805,6.029,13.3059,4.60094,2469.737,2022-1-09T03:27:28Z
2022-01-09T01:29:01Z,42.805,6.029,13.3041,4.60054,2469.704,2022-1-09T03:30:31Z
2022-01-09T01:32:04Z,42.805,6.029,13.3041,4.60051,2469.704,2022-1-09T03:33:34Z
2022-01-09T01:35:07Z,42.805,6.029,13.3029,4.60075,2469.713,2022-1-09T03:36:37Z
2022-01-09T01:38:10Z,42.805,6.029,13.3025,4.60077,2469.75,2022-1-09T03:39:40Z
2022-01-09T01:41:13Z,42.805,6.029,13.3030,4.60079,2469.75,2022-1-09T03:42:44Z
2022-01-09T01:44:16Z,42.805,6.029,13.3065,4.60080,2469.727,2022-1-09T03:45:47Z
2022-01-09T01:47:19Z,42.805,6.029,13.3064,4.60046,2469.713,2022-1-09T03:48:50Z
2022-01-09T01:50:22Z,42.805,6.029,13.3019,4.60097,2469.727,2022-1-09T03:51:53Z
2022-01-09T01:53:26Z,42.805,6.029,13.3018,4.60072,2469.727,2022-1-09T03:54:56Z
2022-01-09T01:56:29Z,42.805,6.029,13.3021,4.60087,2469.713,2022-1-09T03:57:59Z
2022-01-09T01:59:32Z,42.805,6.029,13.3051,4.60081,2469.993,2022-1-09T04:01:02Z
2022-01-09T02:02:35Z,42.805,6.029,13.3017,4.60072,2469.937,2022-1-09T04:04:05Z
2022-01-09T02:05:38Z,42.805,6.029,13.3026,4.60081,2469.937,2022-1-09T04:07:09Z
2022-01-09T02:08:41Z,42.805,6.029,13.3033,4.60074,2469.713,2022-1-09T04:10:12Z
2022-01-09T02:11:44Z,42.805,6.029,13.3025,4.60100,2469.704,2022-1-09T04:13:15Z
2022-01-09T02:14:47Z,42.805,6.029,13.3040,4.60101,2469.713,2022-1-09T04:16:18Z
2022-01-09T02:17:51Z,42.805,6.029,13.3033,4.60067,2469.727,2022-1-09T04:19:21Z
2022-01-09T02:20:54Z,42.805,6.029,13.3041,4.60057,2469.727,2022-1-09T04:22:24Z
2022-01-09T02:23:57Z,42.805,6.029,13.3047,4.60051,2469.68,2022-1-09T04:25:27Z
2022-01-09T02:27:00Z,42.805,6.029,13.3015,4.60049,2469.671,2022-1-09T04:28:30Z
2022-01-09T02:30:03Z,42.805,6.029,13.3023,4.60058,2469.667,2022-1-09T04:31:33Z
2022-01-09T02:33:06Z,42.805,6.029,13.3021,4.60069,2469.68,2022-1-09T04:34:37Z
2022-01-09T02:36:09Z,42.805,6.029,13.3022,4.60129,2469.727,2022-1-09T04:37:40Z
2022-01-09T02:39:12Z,42.805,6.029,13.3035,4.60060,2469.69,2022-1-09T04:40:43Z
2022-01-09T02:42:15Z,42.805,6.029,13.3019,4.60092,2469.69,2022-1-09T04:43:46Z
2022-01-09T02:45:19Z,42.805,6.029,13.3068,4.60079,2469.69,2022-1-09T04:46:49Z
2022-01-09T02:48:22Z,42.805,6.029,13.3032,4.60114,2469.68,2022-1-09T04:49:52Z
2022-01-09T02:51:25Z,42.805,6.029,13.3040,4.60094,2469.657,2022-1-09T04:52:55Z
2022-01-09T02:54:28Z,42.805,6.029,13.3041,4.60101,2469.704,2022-1-09T04:55:58Z
2022-01-09T02:57:31Z,42.805,6.029,13.3030,4.60127,2469.704,2022-1-09T04:59:02Z
2022-01-09T03:00:34Z,42.805,6.029,13.3042,4.60135,2469.704,2022-1-09T05:02:05Z
2022-01-09T03:03:37Z,42.805,6.029,13.3034,4.60132,2469.704,2022-1-09T05:05:08Z
2022-01-09T03:06:40Z,42.805,6.029,13.3054,4.60075,2469.68,2022-1-09T05:08:11Z
2022-01-09T03:09:44Z,42.805,6.029,13.3084,4.60105,2469.75,2022-1-09T05:11:14Z
2022-01-09T03:12:47Z,42.805,6.029,13.3088,4.60079,2469.727,2022-1-09T05:14:17Z
2022-01-09T03:15:50Z,42.805,6.029,13.3065,4.60062,2469.727,2022-1-09T05:17:20Z
2022-01-09T03:18:53Z,42.805,6.029,13.3022,4.60079,2469.68,2022-1-09T05:20:23Z
2022-01-09T03:21:56Z,42.805,6.029,13.3029,4.60077,2469.69,2022-1-09T05:23:26Z
2022-01-09T03:24:59Z,42.805,6.029,13.3032,4.60056,2469.727,2022-1-09T05:26:30Z
2022-01-09T03:28:02Z,42.805,6.029,13.3045,4.60082,2469.704,2022-1-09T05:29:33Z
2022-01-09T03:31:05Z,42.805,6.029,13.3063,4.60082,2469.876,2022-1-09T05:32:36Z
2022-01-09T03:34:08Z,42.805,6.029,13.3053,4.60092,2469.853,2022-1-09T05:35:39Z
2022-01-09T03:37:12Z,42.805,6.029,13.3056,4.60069,2469.75,2022-1-09T05:38:42Z
2022-01-09T03:40:15Z,42.805,6.029,13.3041,4.60057,2469.727,2022-1-09T05:41:45Z
2022-01-09T03:43:18Z,42.805,6.029,13.3048,4.60085,2469.704,2022-1-09T05:44:48Z
2022-01-09T03:46:21Z,42.805,6.029,13.3025,4.60117,2469.727,2022-1-09T05:47:51Z
2022-01-09T03:49:24Z,42.805,6.029,13.3063,4.60044,2469.737,2022-1-09T05:50:55Z
2022-01-09T03:52:27Z,42.805,6.029,13.3024,4.60080,2469.704,2022-1-09T05:53:58Z
2022-01-09T03:55:30Z,42.805,6.029,13.3037,4.60112,2469.704,2022-1-09T05:57:01Z
2022-01-09T03:58:33Z,42.805,6.029,13.3026,4.60114,2469.704,2022-1-09T06:00:04Z
2022-01-09T04:01:37Z,42.805,6.029,13.3040,4.60104,2469.68,2022-1-09T06:03:07Z
2022-01-09T04:04:40Z,42.805,6.029,13.3021,4.60087,2469.667,2022-1-09T06:06:10Z
2022-01-09T04:07:43Z,42.805,6.029,13.3076,4.60127,2469.704,2022-1-09T06:09:13Z
2022-01-09T04:10:46Z,42.805,6.029,13.3078,4.60100,2469.727,2022-1-09T06:12:16Z
2022-01-09T04:13:49Z,42.805,6.029,13.3082,4.60081,2469.704,2022-1-09T06:15:20Z
2022-01-09T04:16:52Z,42.805,6.029,13.3075,4.60087,2469.68,2022-1-09T06:18:23Z
2022-01-09T04:19:55Z,42.805,6.029,13.3090,4.60074,2469.937,2022-1-09T06:21:26Z
2022-01-09T04:22:58Z,42.805,6.029,13.3045,4.60097,2469.727,2022-1-09T06:24:29Z
2022-01-09T04:26:02Z,42.805,6.029,13.3051,4.60130,2469.69,2022-1-09T06:27:32Z
2022-01-09T04:29:05Z,42.805,6.029,13.3038,4.60129,2469.727,2022-1-09T06:30:35Z
2022-01-09T04:32:08Z,42.805,6.029,13.3069,4.60078,2469.69,2022-1-09T06:33:38Z
2022-01-09T04:35:11Z,42.805,6.029,13.3072,4.60118,2469.727,2022-1-09T06:36:41Z
2022-01-09T04:38:14Z,42.805,6.029,13.3076,4.60069,2469.704,2022-1-09T06:39:44Z
2022-01-09T04:41:17Z,42.805,6.029,13.3076,4.60128,2469.737,2022-1-09T06:42:48Z
2022-01-09T04:44:20Z,42.805,6.029,13.3078,4.60115,2469.713,2022-1-09T06:45:51Z
2022-01-09T04:47:23Z,42.805,6.029,13.3080,4.60112,2469.704,2022-1-09T06:48:54Z
2022-01-09T04:50:26Z,42.805,6.029,13.3092,4.60079,2469.704,2022-1-09T06:51:57Z
2022-01-09T04:53:30Z,42.805,6.029,13.3055,4.60148,2469.727,2022-1-09T06:55:00Z
2022-01-09T04:56:33Z,42.805,6.029,13.3070,4.60072,2469.69,2022-1-09T06:58:03Z
2022-01-09T04:59:36Z,42.805,6.029,13.3091,4.60043,2469.713,2022-1-09T07:01:06Z
2022-01-09T05:02:39Z,42.805,6.029,13.3085,4.60073,2469.713,2022-1-09T07:04:09Z
2022-01-09T05:05:42Z,42.805,6.029,13.3085,4.60077,2469.727,2022-1-09T07:07:13Z
2022-01-09T05:08:45Z,42.805,6.029,13.3085,4.60055,2469.68,2022-1-09T07:10:16Z
2022-01-09T05:11:48Z,42.805,6.029,13.3091,4.60087,2469.69,2022-1-09T07:13:19Z
2022-01-09T05:14:51Z,42.805,6.029,13.3036,4.60072,2469.68,2022-1-09T07:16:22Z
2022-01-09T05:17:54Z,42.805,6.029,13.3059,4.60095,2469.69,2022-1-09T07:19:25Z
2022-01-09T05:20:58Z,42.805,6.029,13.3056,4.60079,2469.69,2022-1-09T07:22:28Z
2022-01-09T05:24:01Z,42.805,6.029,13.3045,4.60074,2469.657,2022-1-09T07:25:31Z
2022-01-09T05:27:04Z,42.805,6.029,13.3065,4.60096,2469.69,2022-1-09T07:28:34Z
2022-01-09T05:30:07Z,42.805,6.029,13.3088,4.60092,2469.68,2022-1-09T07:31:37Z
2022-01-09T05:33:10Z,42.805,6.029,13.3076,4.60091,2469.69,2022-1-09T07:34:41Z
2022-01-09T05:36:13Z,42.805,6.029,13.3063,4.60074,2469.68,2022-1-09T07:37:44Z
2022-01-09T05:39:16Z,42.805,6.029,13.3041,4.60145,2469.667,2022-1-09T07:40:47Z
2022-01-09T05:42:19Z,42.805,6.029,13.3046,4.60055,2469.69,2022-1-09T07:43:50Z
2022-01-09T05:45:23Z,42.805,6.029,13.3053,4.60084,2469.643,2022-1-09T07:46:53Z
2022-01-09T05:48:26Z,42.805,6.029,13.3048,4.60068,2469.657,2022-1-09T07:49:56Z
2022-01-09T05:51:29Z,42.805,6.029,13.3052,4.60091,2469.643,2022-1-09T07:52:59Z
2022-01-09T05:54:32Z,42.805,6.029,13.3054,4.60062,2469.643,2022-1-09T07:56:02Z
2022-01-09T05:57:35Z,42.805,6.029,13.3053,4.60082,2469.634,2022-1-09T07:59:06Z
2022-01-09T06:00:38Z,42.805,6.029,13.3079,4.60130,2469.657,2022-1-09T08:02:09Z
2022-01-09T06:03:41Z,42.805,6.029,13.3073,4.60066,2469.634,2022-1-09T08:05:12Z
2022-01-09T06:06:44Z,42.805,6.029,13.3075,4.60052,2469.68,2022-1-09T08:08:15Z
2022-01-09T06:09:47Z,42.805,6.029,13.3078,4.60064,2469.62,2022-1-09T08:11:18Z
2022-01-09T06:12:51Z,42.805,6.029,13.3041,4.60054,2469.643,2022-1-09T08:14:21Z
2022-01-09T06:15:54Z,42.805,6.029,13.3044,4.60089,2469.62,2022-1-09T08:17:24Z
2022-01-09T06:18:57Z,42.805,6.029,13.3036,4.60082,2469.643,2022-1-09T08:20:27Z
2022-01-09T06:22:00Z,42.805,6.029,13.3039,4.60084,2469.634,2022-1-09T08:23:30Z
2022-01-09T06:25:03Z,42.805,6.029,13.3048,4.60104,2469.657,2022-1-09T08:26:34Z
2022-01-09T06:28:06Z,42.805,6.029,13.3050,4.60074,2469.657,2022-1-09T08:29:37Z
2022-01-09T06:31:09Z,42.805,6.029,13.3042,4.60074,2469.62,2022-1-09T08:32:40Z
2022-01-09T06:34:12Z,42.805,6.029,13.3039,4.60081,2469.61,2022-1-09T08:35:43Z
2022-01-09T06:37:16Z,42.805,6.029,13.3032,4.60084,2469.62,2022-1-09T08:38:46Z
2022-01-09T06:40:19Z,42.805,6.029,13.3045,4.60068,2469.597,2022-1-09T08:41:49Z
2022-01-09T06:43:22Z,42.805,6.029,13.3049,4.60066,2469.667,2022-1-09T08:44:52Z
2022-01-09T06:46:25Z,42.805,6.029,13.3060,4.60049,2469.634,2022-1-09T08:47:55Z
2022-01-09T06:49:28Z,42.805,6.029,13.3055,4.60063,2469.657,2022-1-09T08:50:59Z
2022-01-09T06:52:31Z,42.805,6.029,13.3055,4.60073,2469.597,2022-1-09T08:54:02Z
2022-01-09T06:55:34Z,42.805,6.029,13.3061,4.60054,2469.61,2022-1-09T08:57:05Z
2022-01-09T06:58:37Z,42.805,6.029,13.3056,4.60066,2469.597,2022-1-09T09:00:08Z
2022-01-09T07:01:40Z,42.805,6.029,13.3069,4.60076,2469.61,2022-1-09T09:03:11Z
2022-01-09T07:04:44Z,42.805,6.029,13.3061,4.60049,2469.634,2022-1-09T09:06:14Z
2022-01-09T07:07:47Z,42.805,6.029,13.3034,4.60077,2469.597,2022-1-09T09:09:17Z
2022-01-09T07:10:50Z,42.805,6.029,13.3037,4.60064,2469.61,2022-1-09T09:12:20Z
2022-01-09T07:13:53Z,42.805,6.029,13.3029,4.60051,2469.62,2022-1-09T09:15:23Z
2022-01-09T07:16:56Z,42.805,6.029,13.3031,4.60036,2469.62,2022-1-09T09:18:27Z
2022-01-09T07:19:59Z,42.805,6.029,13.3026,4.60077,2469.634,2022-1-09T09:21:30Z
2022-01-09T07:23:02Z,42.805,6.029,13.3070,4.60052,2469.62,2022-1-09T09:24:33Z
2022-01-09T07:26:05Z,42.805,6.029,13.3027,4.60038,2469.634,2022-1-09T09:27:36Z
2022-01-09T07:29:09Z,42.805,6.029,13.3037,4.60057,2469.634,2022-1-09T09:30:39Z
2022-01-09T07:32:12Z,42.805,6.029,13.3031,4.60036,2469.62,2022-1-09T09:33:42Z
2022-01-09T07:35:15Z,42.805,6.029,13.3017,4.60042,2469.62,2022-1-09T09:36:45Z
2022-01-09T07:38:18Z,42.805,6.029,13.3018,4.60066,2469.61,2022-1-09T09:39:48Z
2022-01-09T07:41:21Z,42.805,6.029,13.3029,4.60063,2469.61,2022-1-09T09:42:52Z
2022-01-09T07:44:24Z,42.805,6.029,13.3049,4.60068,2469.634,2022-1-09T09:45:55Z
2022-01-09T07:47:27Z,42.805,6.029,13.3034,4.60056,2469.821,2022-1-09T09:48:58Z
2022-01-09T07:50:30Z,42.805,6.029,13.3015,4.60046,2469.773,2022-1-09T09:52:01Z
2022-01-09T07:53:34Z,42.805,6.029,13.3023,4.60044,2469.806,2022-1-09T09:55:04Z
2022-01-09T07:56:37Z,42.805,6.029,13.3042,4.60055,2469.737,2022-1-09T09:58:07Z
2022-01-09T07:59:40Z,42.805,6.029,13.3030,4.60074,2469.727,2022-1-09T10:01:10Z
2022-01-09T08:02:43Z,42.805,6.029,13.3063,4.60072,2469.737,2022-1-09T10:04:13Z
2022-01-09T08:05:46Z,42.805,6.029,13.3050,4.60067,2469.704,2022-1-09T10:07:17Z
2022-01-09T08:08:49Z,42.805,6.029,13.3069,4.60067,2469.713,2022-1-09T10:10:20Z
2022-01-09T08:11:52Z,42.805,6.029,13.3072,4.60051,2469.68,2022-1-09T10:13:23Z
2022-01-09T08:14:55Z,42.805,6.029,13.3052,4.60069,2469.713,2022-1-09T10:16:26Z
2022-01-09T08:17:58Z,42.805,6.029,13.3065,4.60047,2469.704,2022-1-09T10:19:29Z
2022-01-09T08:21:02Z,42.805,6.029,13.3034,4.60047,2469.713,2022-1-09T10:22:32Z
2022-01-09T08:24:05Z,42.805,6.029,13.3040,4.60063,2469.713,2022-1-09T10:25:35Z
2022-01-09T08:27:08Z,42.805,6.029,13.3060,4.60049,2469.727,2022-1-09T10:28:38Z
2022-01-09T08:30:11Z,42.805,6.029,13.3052,4.60051,2469.713,2022-1-09T10:31:42Z
2022-01-09T08:33:14Z,42.805,6.029,13.3050,4.60057,2469.713,2022-1-09T10:34:45Z
2022-01-09T08:36:17Z,42.805,6.029,13.3042,4.60073,2469.68,2022-1-09T10:37:48Z
2022-01-09T08:39:20Z,42.805,6.029,13.3048,4.60064,2469.75,2022-1-09T10:40:51Z
2022-01-09T08:42:24Z,42.805,6.029,13.3043,4.60057,2469.727,2022-1-09T10:43:54Z
2022-01-09T08:45:27Z,42.805,6.029,13.3063,4.60060,2469.69,2022-1-09T10:46:57Z
2022-01-09T08:48:30Z,42.805,6.029,13.3054,4.60043,2469.68,2022-1-09T10:50:00Z
2022-01-09T08:51:33Z,42.805,6.029,13.3058,4.60063,2469.69,2022-1-09T10:53:03Z
2022-01-09T08:54:36Z,42.805,6.029,13.3055,4.60078,2469.667,2022-1-09T10:56:07Z
2022-01-09T08:57:39Z,42.805,6.029,13.3058,4.60062,2469.737,2022-1-09T10:59:10Z
2022-01-09T09:00:42Z,42.805,6.029,13.3063,4.60058,2469.737,2022-1-09T11:02:13Z
2022-01-09T09:03:45Z,42.805,6.029,13.3063,4.60070,2469.737,2022-1-09T11:05:16Z
2022-01-09T09:06:48Z,42.805,6.029,13.3041,4.60056,2469.704,2022-1-09T11:08:19Z
2022-01-09T09:09:52Z,42.805,6.029,13.3051,4.60055,2469.704,2022-1-09T11:11:22Z
2022-01-09T09:12:55Z,42.805,6.029,13.3051,4.60056,2469.667,2022-1-09T11:14:25Z
2022-01-09T09:15:58Z,42.805,6.029,13.3039,4.60055,2469.704,2022-1-09T11:17:28Z
2022-01-09T09:19:01Z,42.805,6.029,13.3034,4.60044,2469.727,2022-1-09T11:20:31Z
2022-01-09T09:22:04Z,42.805,6.029,13.3061,4.60045,2469.667,2022-1-09T11:23:35Z
2022-01-09T09:25:07Z,42.805,6.029,13.3039,4.60062,2469.68,2022-1-09T11:26:38Z
2022-01-09T09:28:10Z,42.805,6.029,13.3053,4.60053,2469.704,2022-1-09T11:29:41Z
2022-01-09T09:31:13Z,42.805,6.029,13.3046,4.60060,2469.704,2022-1-09T11:32:44Z
2022-01-09T09:34:17Z,42.805,6.029,13.3051,4.60092,2469.68,2022-1-09T11:35:47Z
2022-01-09T09:37:20Z,42.805,6.029,13.3049,4.60067,2469.704,2022-1-09T11:38:50Z
2022-01-09T09:40:23Z,42.805,6.029,13.3056,4.60058,2469.704,2022-1-09T11:41:53Z
2022-01-09T09:43:26Z,42.805,6.029,13.3055,4.60054,2469.704,2022-1-09T11:44:56Z
2022-01-09T09:46:29Z,42.805,6.029,13.3048,4.60064,2469.704,2022-1-09T11:48:00Z
2022-01-09T09:49:32Z,42.805,6.029,13.3050,4.60052,2469.727,2022-1-09T11:51:03Z
2022-01-09T09:52:35Z,42.805,6.029,13.3064,4.60052,2469.69,2022-1-09T11:54:06Z
2022-01-09T09:55:38Z,42.805,6.029,13.3044,4.60063,2469.704,2022-1-09T11:57:09Z
2022-01-09T09:58:42Z,42.805,6.029,13.3048,4.60058,2469.75,2022-1-09T12:00:12Z
2022-01-09T10:01:45Z,42.805,6.029,13.3036,4.60072,2469.69,2022-1-09T12:03:15Z
2022-01-09T10:04:48Z,42.805,6.029,13.3046,4.60046,2469.727,2022-1-09T12:06:18Z
2022-01-09T10:07:51Z,42.805,6.029,13.3056,4.60054,2469.737,2022-1-09T12:09:21Z
2022-01-09T10:10:54Z,42.805,6.029,13.3056,4.60054,2469.727,2022-1-09T12:12:25Z
2022-01-09T10:13:57Z,42.805,6.029,13.3072,4.60049,2469.713,2022-1-09T12:15:28Z
2022-01-09T10:17:00Z,42.805,6.029,13.3059,4.60062,2469.704,2022-1-09T12:18:31Z
2022-01-09T10:20:03Z,42.805,6.029,13.3073,4.60056,2469.727,2022-1-09T12:21:34Z
2022-01-09T10:23:07Z,42.805,6.029,13.3074,4.60058,2469.704,2022-1-09T12:24:37Z
2022-01-09T10:26:10Z,42.805,6.029,13.3055,4.60059,2469.69,2022-1-09T12:27:40Z
2022-01-09T10:29:13Z,42.805,6.029,13.3054,4.60051,2469.704,2022-1-09T12:30:43Z
2022-01-09T10:32:16Z,42.805,6.029,13.3048,4.60062,2469.727,2022-1-09T12:33:46Z
2022-01-09T10:35:19Z,42.805,6.029,13.3051,4.60073,2469.69,2022-1-09T12:36:50Z
2022-01-09T10:38:22Z,42.805,6.029,13.3057,4.60054,2469.704,2022-1-09T12:39:53Z
2022-01-09T10:41:25Z,42.805,6.029,13.3063,4.60060,2469.69,2022-1-09T12:42:56Z
2022-01-09T10:44:28Z,42.805,6.029,13.3073,4.60075,2469.667,2022-1-09T12:45:59Z
2022-01-09T10:47:32Z,42.805,6.029,13.3073,4.60069,2469.704,2022-1-09T12:49:02Z
2022-01-09T10:50:35Z,42.805,6.029,13.3058,4.60058,2469.667,2022-1-09T12:52:05Z
2022-01-09T10:53:38Z,42.805,6.029,13.3061,4.60075,2469.704,2022-1-09T12:55:08Z
2022-01-09T10:56:41Z,42.805,6.029,13.3063,4.60058,2469.667,2022-1-09T12:58:11Z
2022-01-09T10:59:44Z,42.805,6.029,13.3076,4.60057,2469.68,2022-1-09T13:01:15Z
2022-01-09T11:02:47Z,42.805,6.029,13.3084,4.60073,2469.704,2022-1-09T13:04:18Z
2022-01-09T11:05:50Z,42.805,6.029,13.3074,4.60052,2469.727,2022-1-09T13:07:21Z
2022-01-09T11:08:53Z,42.805,6.029,13.3080,4.60060,2469.69,2022-1-09T13:10:24Z
2022-01-09T11:11:56Z,42.805,6.029,13.3082,4.60122,2469.704,2022-1-09T13:13:27Z
2022-01-09T11:15:00Z,42.805,6.029,13.3092,4.60074,2469.69,2022-1-09T13:16:30Z
2022-01-09T11:18:03Z,42.805,6.029,13.3076,4.60067,2469.69,2022-1-09T13:19:33Z
2022-01-09T11:21:06Z,42.805,6.029,13.3072,4.60067,2469.75,2022-1-09T13:22:36Z
2022-01-09T11:24:09Z,42.805,6.029,13.3094,4.60067,2469.704,2022-1-09T13:25:39Z
2022-01-09T11:27:12Z,42.805,6.029,13.3092,4.60077,2469.704,2022-1-09T13:28:43Z
2022-01-09T11:30:15Z,42.805,6.029,13.3089,4.60079,2469.704,2022-1-09T13:31:46Z
2022-01-09T11:33:18Z,42.805,6.029,13.3097,4.60062,2469.704,2022-1-09T13:34:49Z
2022-01-09T11:36:21Z,42.805,6.029,13.3087,4.60079,2469.69,2022-1-09T13:37:52Z
2022-01-09T11:39:25Z,42.805,6.029,13.3084,4.60074,2469.68,2022-1-09T13:40:55Z
2022-01-09T11:42:28Z,42.805,6.029,13.3073,4.60067,2469.704,2022-1-09T13:43:58Z
2022-01-09T11:45:31Z,42.805,6.029,13.3078,4.60059,2469.657,2022-1-09T13:47:01Z
2022-01-09T11:48:34Z,42.805,6.029,13.3087,4.60064,2469.68,2022-1-09T13:50:04Z
2022-01-09T11:51:37Z,42.805,6.029,13.3079,4.60062,2469.69,2022-1-09T13:53:08Z
2022-01-09T11:54:40Z,42.805,6.029,13.3086,4.60080,2469.634,2022-1-09T13:56:11Z
2022-01-09T11:57:43Z,42.805,6.029,13.3069,4.60088,2469.634,2022-1-09T13:59:14Z
2022-01-09T12:00:46Z,42.805,6.029,13.3069,4.60092,2469.667,2022-1-09T14:02:17Z
2022-01-09T12:03:50Z,42.805,6.029,13.3054,4.60111,2469.68,2022-1-09T14:05:20Z
2022-01-09T12:06:53Z,42.805,6.029,13.3047,4.60119,2469.68,2022-1-09T14:08:23Z
2022-01-09T12:09:56Z,42.805,6.029,13.3069,4.60100,2469.68,2022-1-09T14:11:26Z
2022-01-09T12:12:59Z,42.805,6.029,13.3063,4.60079,2469.68,2022-1-09T14:14:29Z
2022-01-09T12:16:02Z,42.805,6.029,13.3066,4.60107,2469.694,2022-1-09T14:17:33Z
2022-01-09T12:19:05Z,42.805,6.029,13.3067,4.60103,2469.634,2022-1-09T14:20:36Z
2022-01-09T12:22:08Z,42.805,6.029,13.3080,4.60106,2469.68,2022-1-09T14:23:39Z
2022-01-09T12:25:11Z,42.805,6.029,13.3080,4.60110,2469.68,2022-1-09T14:26:42Z
2022-01-09T12:28:15Z,42.805,6.029,13.3034,4.60090,2469.667,2022-1-09T14:29:45Z
2022-01-09T12:31:18Z,42.805,6.029,13.3067,4.60105,2469.643,2022-1-09T14:32:48Z
2022-01-09T12:34:21Z,42.805,6.029,13.3061,4.60108,2469.694,2022-1-09T14:35:51Z
2022-01-09T12:37:24Z,42.805,6.029,13.3076,4.60103,2469.657,2022-1-09T14:38:54Z
2022-01-09T12:40:27Z,42.805,6.029,13.3066,4.60102,2469.68,2022-1-09T14:41:58Z
2022-01-09T12:43:30Z,42.805,6.029,13.3073,4.60092,2469.634,2022-1-09T14:45:01Z
2022-01-09T12:46:33Z,42.805,6.029,13.3086,4.60074,2469.634,2022-1-09T14:48:04Z
2022-01-09T12:49:36Z,42.805,6.029,13.3027,4.60092,2469.62,2022-1-09T14:51:07Z
2022-01-09T12:52:40Z,42.805,6.029,13.3024,4.60106,2469.597,2022-1-09T14:54:10Z
2022-01-09T12:55:43Z,42.805,6.029,13.3004,4.60110,2469.634,2022-1-09T14:57:13Z
2022-01-09T12:58:46Z,42.805,6.029,13.3007,4.60107,2469.634,2022-1-09T15:00:16Z
2022-01-09T13:01:49Z,42.805,6.029,13.3006,4.60083,2469.634,2022-1-09T15:03:19Z
2022-01-09T13:04:52Z,42.805,6.029,13.3040,4.60099,2469.657,2022-1-09T15:06:23Z
2022-01-09T13:07:55Z,42.805,6.029,13.2999,4.60114,2469.62,2022-1-09T15:09:26Z
2022-01-09T13:10:58Z,42.805,6.029,13.2998,4.60150,2469.573,2022-1-09T15:12:29Z
2022-01-09T13:14:01Z,42.805,6.029,13.2991,4.60169,2469.634,2022-1-09T15:15:32Z
2022-01-09T13:17:05Z,42.805,6.029,13.2997,4.60145,2469.61,2022-1-09T15:18:35Z
2022-01-09T13:20:08Z,42.805,6.029,13.2999,4.60155,2469.629,2022-1-09T15:21:38Z
2022-01-09T13:23:11Z,42.805,6.029,13.2997,4.60097,2469.62,2022-1-09T15:24:41Z
2022-01-09T13:26:14Z,42.805,6.029,13.3063,4.60066,2469.61,2022-1-09T15:27:44Z
2022-01-09T13:29:17Z,42.805,6.029,13.3015,4.60122,2469.597,2022-1-09T15:30:48Z
2022-01-09T13:32:20Z,42.805,6.029,13.3026,4.60088,2469.597,2022-1-09T15:33:51Z
2022-01-09T13:35:23Z,42.805,6.029,13.3026,4.60079,2469.597,2022-1-09T15:36:54Z
2022-01-09T13:38:26Z,42.805,6.029,13.2997,4.60132,2469.62,2022-1-09T15:39:57Z
2022-01-09T13:41:30Z,42.805,6.029,13.2999,4.60122,2469.634,2022-1-09T15:43:00Z
2022-01-09T13:44:33Z,42.805,6.029,13.2993,4.60127,2469.657,2022-1-09T15:46:03Z
2022-01-09T13:47:36Z,42.805,6.029,13.2996,4.60056,2469.657,2022-1-09T15:49:06Z
2022-01-09T13:50:39Z,42.805,6.029,13.2993,4.60058,2469.62,2022-1-09T15:52:09Z
2022-01-09T13:53:42Z,42.805,6.029,13.2996,4.60059,2469.634,2022-1-09T15:55:13Z
2022-01-09T13:56:45Z,42.805,6.029,13.2993,4.60061,2469.62,2022-1-09T15:58:16Z
2022-01-09T13:59:48Z,42.805,6.029,13.2995,4.60047,2469.643,2022-1-09T16:01:19Z
2022-01-09T14:02:51Z,42.805,6.029,13.2996,4.60049,2469.657,2022-1-09T16:04:22Z
2022-01-09T14:05:55Z,42.805,6.029,13.2998,4.60079,2469.62,2022-1-09T16:07:25Z
2022-01-09T14:08:58Z,42.805,6.029,13.2996,4.60093,2469.61,2022-1-09T16:10:28Z
2022-01-09T14:12:01Z,42.805,6.029,13.2993,4.60109,2469.583,2022-1-09T16:13:31Z
2022-01-09T14:15:04Z,42.805,6.029,13.2998,4.60087,2469.61,2022-1-09T16:16:34Z
2022-01-09T14:18:07Z,42.805,6.029,13.2993,4.60083,2469.61,2022-1-09T16:19:38Z
2022-01-09T14:21:10Z,42.805,6.029,13.2997,4.60107,2469.643,2022-1-09T16:22:41Z
2022-01-09T14:24:13Z,42.805,6.029,13.2996,4.60084,2469.62,2022-1-09T16:25:44Z
2022-01-09T14:27:16Z,42.805,6.029,13.2994,4.60081,2469.597,2022-1-09T16:28:47Z
2022-01-09T14:30:20Z,42.805,6.029,13.2996,4.60086,2469.62,2022-1-09T16:31:50Z
2022-01-09T14:33:23Z,42.805,6.029,13.2998,4.60088,2469.573,2022-1-09T16:34:53Z
2022-01-09T14:36:26Z,42.805,6.029,13.2996,4.60091,2469.634,2022-1-09T16:37:56Z
2022-01-09T14:39:29Z,42.805,6.029,13.2999,4.60084,2469.62,2022-1-09T16:40:59Z
2022-01-09T14:42:32Z,42.805,6.029,13.3002,4.60096,2469.62,2022-1-09T16:44:03Z
2022-01-09T14:45:35Z,42.805,6.029,13.3012,4.60055,2469.634,2022-1-09T16:47:06Z
2022-01-09T14:48:38Z,42.805,6.029,13.3019,4.60035,2469.657,2022-1-09T16:50:09Z
2022-01-09T14:51:41Z,42.805,6.029,13.3003,4.60043,2469.62,2022-1-09T16:53:12Z
2022-01-09T14:54:44Z,42.805,6.029,13.3009,4.60039,2469.657,2022-1-09T16:56:15Z
2022-01-09T14:57:48Z,42.805,6.029,13.3009,4.60033,2469.643,2022-1-09T16:59:18Z
2022-01-09T15:00:51Z,42.805,6.029,13.3019,4.60033,2469.62,2022-1-09T17:02:21Z
2022-01-09T15:03:54Z,42.805,6.029,13.3021,4.60033,2469.667,2022-1-09T17:05:24Z
2022-01-09T15:06:57Z,42.805,6.029,13.3024,4.60040,2469.657,2022-1-09T17:08:27Z
2022-01-09T15:10:00Z,42.805,6.029,13.3027,4.60047,2469.61,2022-1-09T17:11:31Z
2022-01-09T15:13:03Z,42.805,6.029,13.3028,4.60050,2469.61,2022-1-09T17:14:34Z